SL-14 DEB, 45339

Orbit data source: Space-Track

SL-14 DEB, 45339 is space debris in LEO originally from a launch on Thu, 15 Aug 1991 UTC launched from the Plesetsk Missile And Space Complex (PKMTR). Debris objects in space refer to the collection of defunct objects orbiting the Earth. Examples of debris include non-operational satellites, rocket bodies, and fragments generated from explosions, collisions, or faulty payload assembly.

Loading next visibility...
Identifier
45339, 1991-056CD
Orbit
LEO
Country
Flag of CISCIS
Related business
Manufacturer
Unknown
Mission
Spacecraft
Bus & Motor
Unknown
Mass
Unknown
Launch date (UTC)
1991-08-15 (34 years ago)
Launch vehicle
Unknown
Launch site
Plesetsk Missile And Space Complex (PKMTR)
Object type
Payload
Rocket body
Debris
Shape & HBR
Unknown shape, 0.1 m
Radar Cross Section
Small (<0.1 m²)

Expand to show TLE details & history
Last TLE update: 14 hours ago

TLE from 14 hours ago
0 SL-14 DEB
1 45339U 91056CD  26036.22661235  .00010513  00000-0  10733-1 0  9994
2 45339  82.5012 120.4550 0068202  39.5860 321.0247 13.75427299292955
Epoch: 2026-02-05T05:26Z
TLE epoch observation values (Epoch: 2026-02-05T05:26:19.307Z)
Latitude
0.00006°
Longitude
-96.50731°
Altitude
944.153 km
Speed
7.399 km/s
True Right ascension
08h 01m 49s
True Declination
0° 00' 00"
Sunlit
Object was in full shadow at epoch
Visualization orbit readout
Latitude
Unknown
Longitude
Unknown
Altitude
Unknown
Speed
Unknown
Apparent Right ascension
Unknown
Apparent Declination
Unknown
Sunlit
N/A
Visualization observer readout
Local Sidereal Time
21:51:03
Azimuth
Unknown
Elevation
Unknown
Doppler factor
Unknown
Orbital elements
Apogee altitude
1,027.481 km
Perigee altitude
927.15 km
Semi-major axis
7,355.453 km
Eccentricity
0.00682
Inclination
82.5012°
RAAN
120.455°
Arg. of periapsis
39.586°
True anomaly
320.52985°
Mean anomaly
321.0247°
Eccentric anomaly
320.7776°
Mean motion
3.44056 °/min
Orbital period
104.63 mins
BSTAR
0.010733
Loading maneuver chart data...
Computing Atmospheric mass density...
Loading historical data...
Loading historical data...
Loading historical data...
Loading historical data...
Loading historical data...
Loading historical data...
Loading historical data...

Documentation

Showing up to 5 results
|